User: anonymous   Login
Location: Unspecified
(0.0000°N, 0.0000°E)
Time: 10:28:45
(UTC+01:00)
Language:

Meteor PRIRODA - Orbit

View from above orbital plane
View from above orbital plane
View from above satellite
View from above satellite

Ground track
Ground track

The orbit data is extracted from the following two-line orbital elements,

1 12585U 81065A   18055.86791278  .00000562  00000-0  28649-4 0  9994
2 12585  97.4617  37.0642 0013246 233.2043 126.7977 15.20784583   677
Epoch (UTC): 24 February 2018 20:49:47
Eccentricity: 0.0013246
inclination: 97.4617°
perigee height: 494 km
apogee height: 512 km
right ascension of ascending node: 37.0642°
argument of perigee: 233.2043°
revolutions per day: 15.20784583
mean anomaly at epoch: 126.7977°
orbit number at epoch: 67

The dashed part of the orbit path shows where the satellite is in the earth's shadow,  

DLR